Wetterdaten: Dienstag, 26.09.2017
Datum Zeit Temp. A. Feuchte A. Luftdruck Regen Wind Richtung Richtung Sonnenschein Helligkeit Solar
26.09.2017 00:03 13,8 C 80 % 1018,8 hPa 0,0 l/m 0,0 km/h (0 Bft) O-NO 60 0 min 0 lux 0 W/m
26.09.2017 00:08 13,6 C 80 % 1018,8 hPa 0,0 l/m 0,0 km/h (0 Bft) O-NO 60 0 min 0 lux 0 W/m
26.09.2017 00:13 13,5 C 81 % 1018,8 hPa 0,0 l/m 0,0 km/h (0 Bft) O-NO 60 0 min 0 lux 0 W/m
26.09.2017 00:18 13,5 C 81 % 1018,8 hPa 0,0 l/m 0,0 km/h (0 Bft) O-NO 60 0 min 0 lux 0 W/m
26.09.2017 00:23 13,4 C 81 % 1018,8 hPa 0,0 l/m 0,0 km/h (0 Bft) O-NO 60 0 min 0 lux 0 W/m
26.09.2017 00:27 13,3 C 81 % 1018,8 hPa 0,0 l/m 7,1 km/h (2 Bft) NO22.5 40 0 min 0 lux 0 W/m
26.09.2017 00:33 13,5 C 82 % 1018,8 hPa 0,0 l/m 0,4 km/h (0 Bft) O-NO 70 0 min 0 lux 0 W/m
26.09.2017 00:38 13,6 C 82 % 1018,8 hPa 0,0 l/m 1,2 km/h (1 Bft) NO22.5 50 0 min 0 lux 0 W/m
26.09.2017 00:43 13,7 C 82 % 1018,8 hPa 0,0 l/m 4,4 km/h (1 Bft) NO22.5 50 0 min 0 lux 0 W/m
26.09.2017 00:48 13,7 C 82 % 1018,8 hPa 0,0 l/m 5,4 km/h (2 Bft) NO22.5 50 0 min 0 lux 0 W/m
26.09.2017 00:53 13,6 C 82 % 1018,8 hPa 0,0 l/m 0,0 km/h (0 Bft) NO22.5 55 0 min 0 lux 0 W/m
26.09.2017 00:58 13,6 C 82 % 1018,8 hPa 0,0 l/m 0,0 km/h (0 Bft) NO 35 0 min 0 lux 0 W/m
26.09.2017 01:03 13,6 C 82 % 1018,8 hPa 0,0 l/m 0,0 km/h (0 Bft) NO 35 0 min 0 lux 0 W/m
26.09.2017 01:08 13,6 C 82 % 1018,8 hPa 0,0 l/m 0,0 km/h (0 Bft) N-NO 30 0 min 0 lux 0 W/m
26.09.2017 01:13 13,5 C 82 % 1018,8 hPa 0,0 l/m 0,0 km/h (0 Bft) N-NO 30 0 min 0 lux 0 W/m
26.09.2017 01:18 13,5 C 82 % 1018,8 hPa 0,0 l/m 0,4 km/h (0 Bft) N-NO22.5 30 0 min 0 lux 0 W/m
26.09.2017 01:23 13,5 C 83 % 1018,8 hPa 0,0 l/m 0,3 km/h (0 Bft) NO 45 0 min 0 lux 0 W/m
26.09.2017 01:28 13,6 C 83 % 1018,8 hPa 0,0 l/m 0,0 km/h (0 Bft) N-NO 25 0 min 0 lux 0 W/m
26.09.2017 01:32 13,4 C 83 % 1018,8 hPa 0,0 l/m 0,5 km/h (0 Bft) NO22.5 40 0 min 0 lux 0 W/m
26.09.2017 01:38 13,4 C 83 % 1018,8 hPa 0,0 l/m 0,0 km/h (0 Bft) O-NO 70 0 min 0 lux 0 W/m
26.09.2017 01:43 13,4 C 83 % 1018,8 hPa 0,0 l/m 0,1 km/h (0 Bft) O-NO 70 0 min 0 lux 0 W/m
26.09.2017 01:48 13,4 C 84 % 1018,8 hPa 0,0 l/m 0,7 km/h (0 Bft) O22.5 90 0 min 0 lux 0 W/m
26.09.2017 01:53 13,3 C 84 % 1018,8 hPa 0,0 l/m 1,0 km/h (0 Bft) O45 95 0 min 0 lux 0 W/m
26.09.2017 01:57 13,3 C 84 % 1018,8 hPa 0,0 l/m 0,7 km/h (0 Bft) O45 90 0 min 0 lux 0 W/m
26.09.2017 02:03 13,2 C 84 % 1018,8 hPa 0,0 l/m 0,6 km/h (0 Bft) O45 90 0 min 0 lux 0 W/m
26.09.2017 02:08 13,1 C 84 % 1018,8 hPa 0,0 l/m 0,1 km/h (0 Bft) O-SO22.5 105 0 min 0 lux 0 W/m
26.09.2017 02:13 13,1 C 84 % 1018,8 hPa 0,0 l/m 0,1 km/h (0 Bft) O22.5 80 0 min 0 lux 0 W/m
26.09.2017 02:18 13,0 C 84 % 1018,8 hPa 0,0 l/m 0,0 km/h (0 Bft) O 80 0 min 0 lux 0 W/m
26.09.2017 02:23 12,4 C 84 % 1018,8 hPa 0,0 l/m 0,0 km/h (0 Bft) O 80 0 min 0 lux 0 W/m
26.09.2017 02:28 12,2 C 84 % 1018,8 hPa 0,0 l/m 0,0 km/h (0 Bft) O 80 0 min 0 lux 0 W/m
26.09.2017 02:33 12,0 C 84 % 1018,8 hPa 0,0 l/m 0,0 km/h (0 Bft) O 80 0 min 0 lux 0 W/m
26.09.2017 02:38 12,0 C 85 % 1018,8 hPa 0,0 l/m 0,0 km/h (0 Bft) O 80 0 min 0 lux 0 W/m
26.09.2017 02:43 12,0 C 85 % 1018,8 hPa 0,0 l/m 0,0 km/h (0 Bft) O 80 0 min 0 lux 0 W/m
26.09.2017 02:48 12,2 C 85 % 1018,8 hPa 0,0 l/m 0,0 km/h (0 Bft) O 80 0 min 0 lux 0 W/m
26.09.2017 02:53 12,2 C 85 % 1018,8 hPa 0,0 l/m 0,0 km/h (0 Bft) O 80 0 min 0 lux 0 W/m
26.09.2017 02:58 12,1 C 85 % 1018,8 hPa 0,0 l/m 0,0 km/h (0 Bft) O 80 0 min 0 lux 0 W/m
26.09.2017 03:03 12,0 C 85 % 1018,8 hPa 0,0 l/m 0,0 km/h (0 Bft) O 80 0 min 0 lux 0 W/m
26.09.2017 03:08 12,0 C 85 % 1018,8 hPa 0,0 l/m 0,0 km/h (0 Bft) O 80 0 min 0 lux 0 W/m
26.09.2017 03:13 12,0 C 85 % 1018,8 hPa 0,0 l/m 0,0 km/h (0 Bft) O 80 0 min 0 lux 0 W/m
26.09.2017 03:18 12,0 C 85 % 1018,8 hPa 0,0 l/m 0,0 km/h (0 Bft) O 80 0 min 0 lux 0 W/m
26.09.2017 03:23 12,0 C 85 % 1018,8 hPa 0,0 l/m 0,0 km/h (0 Bft) O 80 0 min 0 lux 0 W/m
26.09.2017 03:28 12,0 C 85 % 1018,8 hPa 0,0 l/m 0,0 km/h (0 Bft) O 80 0 min 0 lux 0 W/m
26.09.2017 03:33 12,0 C 85 % 1018,8 hPa 0,0 l/m 0,0 km/h (0 Bft) O 80 0 min 0 lux 0 W/m
26.09.2017 03:38 12,2 C 85 % 1018,8 hPa 0,0 l/m 0,0 km/h (0 Bft) O 80 0 min 0 lux 0 W/m
26.09.2017 03:43 12,4 C 85 % 1018,8 hPa 0,0 l/m 0,0 km/h (0 Bft) O 80 0 min 0 lux 0 W/m
26.09.2017 03:48 12,5 C 86 % 1018,8 hPa 0,0 l/m 0,0 km/h (0 Bft) O 80 0 min 0 lux 0 W/m
26.09.2017 03:53 12,6 C 86 % 1018,8 hPa 0,0 l/m 0,0 km/h (0 Bft) NO22.5 50 0 min 0 lux 0 W/m
26.09.2017 03:58 12,6 C 86 % 1018,8 hPa 0,0 l/m 0,0 km/h (0 Bft) NO 35 0 min 0 lux 0 W/m
26.09.2017 04:03 12,7 C 86 % 1018,8 hPa 0,0 l/m 0,0 km/h (0 Bft) NO 35 0 min 0 lux 0 W/m
26.09.2017 04:08 12,7 C 86 % 1018,8 hPa 0,0 l/m 0,0 km/h (0 Bft) NO 35 0 min 0 lux 0 W/m
26.09.2017 04:13 12,6 C 85 % 1018,8 hPa 0,0 l/m 0,0 km/h (0 Bft) NO 35 0 min 0 lux 0 W/m
26.09.2017 04:18 12,6 C 86 % 1018,8 hPa 0,0 l/m 0,0 km/h (0 Bft) NO 35 0 min 0 lux 0 W/m
26.09.2017 04:23 12,8 C 86 % 1018,8 hPa 0,0 l/m 0,0 km/h (0 Bft) NO 35 0 min 0 lux 0 W/m
26.09.2017 04:28 12,8 C 86 % 1018,8 hPa 0,0 l/m 0,0 km/h (0 Bft) NO 35 0 min 0 lux 0 W/m
26.09.2017 04:33 12,8 C 86 % 1018,8 hPa 0,0 l/m 0,0 km/h (0 Bft) NO 35 0 min 0 lux 0 W/m
26.09.2017 04:38 12,8 C 86 % 1018,8 hPa 0,0 l/m 0,0 km/h (0 Bft) NO 35 0 min 0 lux 0 W/m
26.09.2017 04:43 12,8 C 86 % 1018,8 hPa 0,0 l/m 0,0 km/h (0 Bft) NO 35 0 min 0 lux 0 W/m
26.09.2017 04:48 12,9 C 86 % 1018,8 hPa 0,0 l/m 0,0 km/h (0 Bft) NO 35 0 min 0 lux 0 W/m
26.09.2017 04:53 12,8 C 86 % 1018,8 hPa 0,0 l/m 0,0 km/h (0 Bft) NO 50 0 min 0 lux 0 W/m
26.09.2017 04:58 12,8 C 86 % 1018,8 hPa 0,0 l/m 0,0 km/h (0 Bft) NO 50 0 min 0 lux 0 W/m
26.09.2017 05:03 12,8 C 86 % 1018,8 hPa 0,0 l/m 0,0 km/h (0 Bft) NO 50 0 min 0 lux 0 W/m
26.09.2017 05:08 12,8 C 86 % 1018,8 hPa 0,0 l/m 0,1 km/h (0 Bft) NO22.5 40 0 min 0 lux 0 W/m
26.09.2017 05:13 12,9 C 86 % 1018,8 hPa 0,0 l/m 0,0 km/h (0 Bft) N-NO 30 0 min 0 lux 0 W/m
26.09.2017 05:18 12,8 C 86 % 1018,8 hPa 0,0 l/m 0,0 km/h (0 Bft) N-NO 30 0 min 0 lux 0 W/m
26.09.2017 05:23 12,8 C 86 % 1018,8 hPa 0,0 l/m 0,0 km/h (0 Bft) N-NO 30 0 min 0 lux 0 W/m
26.09.2017 05:28 12,9 C 86 % 1018,8 hPa 0,0 l/m 0,0 km/h (0 Bft) N-NO 30 0 min 0 lux 0 W/m
26.09.2017 05:33 12,9 C 86 % 1018,8 hPa 0,0 l/m 0,0 km/h (0 Bft) N-NO 30 0 min 0 lux 0 W/m
26.09.2017 05:38 12,9 C 86 % 1018,8 hPa 0,0 l/m 0,0 km/h (0 Bft) N-NO 30 0 min 0 lux 0 W/m
26.09.2017 05:43 12,9 C 86 % 1018,8 hPa 0,0 l/m 0,0 km/h (0 Bft) N-NO 30 0 min 0 lux 0 W/m
26.09.2017 05:48 13,0 C 86 % 1018,8 hPa 0,0 l/m 0,0 km/h (0 Bft) N-NO 30 0 min 0 lux 0 W/m
26.09.2017 05:53 13,0 C 86 % 1018,8 hPa 0,0 l/m 0,0 km/h (0 Bft) N-NO 30 0 min 0 lux 0 W/m
26.09.2017 05:58 12,9 C 86 % 1018,8 hPa 0,0 l/m 0,0 km/h (0 Bft) N-NO 30 0 min 0 lux 0 W/m
26.09.2017 06:03 12,9 C 86 % 1018,8 hPa 0,0 l/m 0,0 km/h (0 Bft) N-NO 30 0 min 0 lux 0 W/m
26.09.2017 06:08 12,8 C 86 % 1018,8 hPa 0,0 l/m 0,0 km/h (0 Bft) N-NO 30 0 min 0 lux 0 W/m
26.09.2017 06:13 12,9 C 86 % 1018,8 hPa 0,0 l/m 0,0 km/h (0 Bft) NO22.5 45 0 min 0 lux 0 W/m
26.09.2017 06:18 12,9 C 86 % 1018,8 hPa 0,0 l/m 0,0 km/h (0 Bft) O-NO 60 0 min 0 lux 0 W/m
26.09.2017 06:23 12,9 C 86 % 1018,8 hPa 0,0 l/m 0,0 km/h (0 Bft) O-NO 60 0 min 0 lux 0 W/m
26.09.2017 06:28 12,9 C 86 % 1018,8 hPa 0,0 l/m 0,0 km/h (0 Bft) O-NO 60 0 min 0 lux 0 W/m
26.09.2017 06:33 12,9 C 86 % 1018,8 hPa 0,0 l/m 0,0 km/h (0 Bft) O-NO 60 0 min 0 lux 0 W/m
26.09.2017 06:38 12,9 C 86 % 1018,8 hPa 0,0 l/m 0,0 km/h (0 Bft) O-NO 60 0 min 0 lux 0 W/m
26.09.2017 06:43 12,9 C 86 % 1018,8 hPa 0,0 l/m 0,0 km/h (0 Bft) O-NO 60 0 min 0 lux 0 W/m
26.09.2017 06:48 12,9 C 86 % 1018,8 hPa 0,0 l/m 0,0 km/h (0 Bft) O-NO 60 0 min 0 lux 0 W/m
26.09.2017 06:53 13,0 C 86 % 1018,8 hPa 0,0 l/m 0,0 km/h (0 Bft) O-NO 60 0 min 0 lux 0 W/m
26.09.2017 06:58 13,0 C 86 % 1018,8 hPa 0,0 l/m 0,0 km/h (0 Bft) O-NO 60 0 min 0 lux 0 W/m
26.09.2017 07:03 12,9 C 86 % 1018,8 hPa 0,0 l/m 0,0 km/h (0 Bft) O-NO 60 0 min 0 lux 0 W/m
26.09.2017 07:08 12,9 C 86 % 1018,8 hPa 0,0 l/m 0,0 km/h (0 Bft) O-NO 70 0 min 0 lux 0 W/m
26.09.2017 07:13 13,0 C 86 % 1018,8 hPa 0,0 l/m 0,0 km/h (0 Bft) O-NO 70 0 min 0 lux 0 W/m
26.09.2017 07:18 12,9 C 86 % 1018,8 hPa 0,0 l/m 0,0 km/h (0 Bft) O-NO 70 0 min 0 lux 0 W/m
26.09.2017 07:23 12,9 C 86 % 1018,8 hPa 0,0 l/m 0,0 km/h (0 Bft) O-NO 70 0 min 0 lux 0 W/m
26.09.2017 07:28 12,9 C 86 % 1018,8 hPa 0,0 l/m 0,0 km/h (0 Bft) O-NO 60 0 min 0 lux 0 W/m
26.09.2017 07:33 12,9 C 86 % 1018,8 hPa 0,0 l/m 0,0 km/h (0 Bft) O-NO 60 0 min 0 lux 0 W/m
26.09.2017 07:38 12,9 C 86 % 1019,8 hPa 0,0 l/m 0,0 km/h (0 Bft) NO22.5 40 0 min 0 lux 0 W/m
26.09.2017 07:43 13,0 C 86 % 1019,8 hPa 0,0 l/m 0,0 km/h (0 Bft) N22.5 10 0 min 0 lux 0 W/m
26.09.2017 07:48 13,0 C 86 % 1019,8 hPa 0,0 l/m 0,0 km/h (0 Bft) N-NO 25 0 min 0 lux 0 W/m
26.09.2017 07:53 13,2 C 86 % 1019,8 hPa 0,0 l/m 0,0 km/h (0 Bft) N-NO 25 0 min 0 lux 0 W/m
26.09.2017 07:58 13,2 C 86 % 1019,8 hPa 0,0 l/m 0,0 km/h (0 Bft) N-NO 25 0 min 0 lux 0 W/m
26.09.2017 08:03 13,2 C 86 % 1019,8 hPa 0,0 l/m 0,0 km/h (0 Bft) N-NO 25 0 min 0 lux 0 W/m
26.09.2017 08:08 13,2 C 86 % 1019,8 hPa 0,0 l/m 0,0 km/h (0 Bft) N-NO 25 0 min 0 lux 0 W/m
26.09.2017 08:13 13,2 C 86 % 1019,8 hPa 0,0 l/m 0,0 km/h (0 Bft) N-NO 25 0 min 0 lux 0 W/m
26.09.2017 08:18 13,2 C 86 % 1019,8 hPa 0,0 l/m 0,0 km/h (0 Bft) N-NO 25 0 min 0 lux 0 W/m
26.09.2017 08:23 13,3 C 86 % 1019,8 hPa 0,0 l/m 0,0 km/h (0 Bft) N-NO 25 0 min 0 lux 0 W/m
26.09.2017 08:28 13,3 C 86 % 1019,8 hPa 0,0 l/m 0,0 km/h (0 Bft) N-NO 25 0 min 0 lux 0 W/m
26.09.2017 08:33 13,4 C 86 % 1019,8 hPa 0,0 l/m 0,0 km/h (0 Bft) N-NO 25 0 min 0 lux 0 W/m
26.09.2017 08:38 13,4 C 86 % 1019,8 hPa 0,0 l/m 0,0 km/h (0 Bft) N-NO 25 0 min 0 lux 0 W/m
26.09.2017 08:43 13,4 C 86 % 1019,8 hPa 0,0 l/m 0,0 km/h (0 Bft) N-NO 25 0 min 0 lux 0 W/m
26.09.2017 08:48 13,4 C 86 % 1019,8 hPa 0,0 l/m 0,0 km/h (0 Bft) N-NO 25 0 min 0 lux 0 W/m
26.09.2017 08:53 13,4 C 86 % 1019,8 hPa 0,0 l/m 0,0 km/h (0 Bft) N-NO 25 0 min 0 lux 0 W/m
26.09.2017 08:58 13,5 C 86 % 1019,8 hPa 0,0 l/m 0,0 km/h (0 Bft) N-NO 25 0 min 0 lux 0 W/m
26.09.2017 09:03 13,5 C 86 % 1019,8 hPa 0,0 l/m 0,0 km/h (0 Bft) N-NO 25 0 min 0 lux 0 W/m
26.09.2017 09:08 13,6 C 86 % 1019,8 hPa 0,0 l/m 0,0 km/h (0 Bft) N-NO 25 0 min 0 lux 0 W/m
26.09.2017 09:13 13,6 C 86 % 1019,8 hPa 0,0 l/m 0,0 km/h (0 Bft) N-NO 25 0 min 0 lux 0 W/m
26.09.2017 09:18 13,7 C 86 % 1019,8 hPa 0,0 l/m 0,0 km/h (0 Bft) N-NO 25 0 min 0 lux 0 W/m
26.09.2017 09:23 13,7 C 86 % 1019,8 hPa 0,0 l/m 0,0 km/h (0 Bft) N-NO 25 0 min 0 lux 0 W/m
26.09.2017 09:28 13,8 C 86 % 1019,8 hPa 0,0 l/m 0,0 km/h (0 Bft) N-NO 25 0 min 0 lux 0 W/m
26.09.2017 09:33 13,9 C 86 % 1019,8 hPa 0,0 l/m 0,0 km/h (0 Bft) N-NO 30 0 min 0 lux 0 W/m
26.09.2017 09:38 14,0 C 86 % 1019,8 hPa 0,0 l/m 0,0 km/h (0 Bft) N-NO 30 0 min 0 lux 0 W/m
26.09.2017 09:43 14,2 C 85 % 1019,8 hPa 0,0 l/m 0,0 km/h (0 Bft) NO22.5 45 0 min 0 lux 0 W/m
26.09.2017 09:48 14,3 C 85 % 1019,8 hPa 0,0 l/m 0,1 km/h (0 Bft) NO 40 0 min 0 lux 0 W/m
26.09.2017 09:53 14,4 C 85 % 1019,7 hPa 0,0 l/m 0,0 km/h (0 Bft) NO22.5 35 0 min 0 lux 0 W/m
26.09.2017 09:58 14,4 C 84 % 1019,7 hPa 0,0 l/m 5,1 km/h (1 Bft) NO22.5 40 0 min 0 lux 0 W/m
26.09.2017 10:03 14,5 C 84 % 1019,7 hPa 0,0 l/m 0,0 km/h (0 Bft) NO 40 0 min 0 lux 0 W/m
26.09.2017 10:08 14,6 C 84 % 1019,7 hPa 0,0 l/m 0,0 km/h (0 Bft) NO22.5 50 0 min 0 lux 0 W/m
26.09.2017 10:13 14,8 C 84 % 1019,7 hPa 0,0 l/m 1,0 km/h (0 Bft) NO22.5 45 0 min 0 lux 0 W/m
26.09.2017 10:18 15,0 C 84 % 1019,7 hPa 0,0 l/m 0,0 km/h (0 Bft) N-NO 15 0 min 0 lux 0 W/m
26.09.2017 10:23 15,0 C 83 % 1019,7 hPa 0,0 l/m 0,0 km/h (0 Bft) N-NO 15 0 min 0 lux 0 W/m
26.09.2017 10:28 15,0 C 83 % 1019,7 hPa 0,0 l/m 0,0 km/h (0 Bft) NO22.5 45 0 min 0 lux 0 W/m
26.09.2017 10:33 15,2 C 83 % 1019,7 hPa 0,0 l/m 5,7 km/h (2 Bft) NO22.5 50 0 min 0 lux 0 W/m
26.09.2017 10:38 15,2 C 82 % 1019,7 hPa 0,0 l/m 7,5 km/h (2 Bft) NO22.5 40 0 min 0 lux 0 W/m
26.09.2017 10:43 15,2 C 81 % 1019,7 hPa 0,0 l/m 7,0 km/h (2 Bft) NO22.5 45 0 min 0 lux 0 W/m
26.09.2017 10:48 15,2 C 81 % 1019,7 hPa 0,0 l/m 3,9 km/h (1 Bft) NO22.5 35 0 min 0 lux 0 W/m
26.09.2017 10:53 15,4 C 81 % 1019,7 hPa 0,0 l/m 0,4 km/h (0 Bft) N-NO22.5 25 0 min 0 lux 0 W/m
26.09.2017 10:58 15,5 C 81 % 1019,7 hPa 0,0 l/m 0,3 km/h (0 Bft) N-NO 30 0 min 0 lux 0 W/m
26.09.2017 11:03 15,6 C 80 % 1019,7 hPa 0,0 l/m 0,7 km/h (0 Bft) NO22.5 45 0 min 15,4 klux 105 W/m
26.09.2017 11:08 15,8 C 80 % 1019,7 hPa 0,0 l/m 0,0 km/h (0 Bft) NO 50 0 min 15,4 klux 105 W/m
26.09.2017 11:13 15,8 C 80 % 1019,7 hPa 0,0 l/m 0,0 km/h (0 Bft) NO 35 0 min 15,4 klux 105 W/m
26.09.2017 11:18 15,8 C 79 % 1019,7 hPa 0,0 l/m 0,0 km/h (0 Bft) O-NO22.5 75 0 min 15,4 klux 105 W/m
26.09.2017 11:23 15,8 C 79 % 1019,7 hPa 0,0 l/m 0,0 km/h (0 Bft) O-NO 65 0 min 17,7 klux 121 W/m
26.09.2017 11:28 15,9 C 78 % 1019,7 hPa 0,0 l/m 0,0 km/h (0 Bft) O22.5 80 0 min 19,1 klux 131 W/m
26.09.2017 11:33 16,0 C 78 % 1019,7 hPa 0,0 l/m 0,0 km/h (0 Bft) O 80 0 min 19,6 klux 134 W/m
26.09.2017 11:38 16,2 C 78 % 1019,7 hPa 0,0 l/m 0,0 km/h (0 Bft) O-NO 75 0 min 21,1 klux 144 W/m
26.09.2017 11:43 16,2 C 76 % 1019,7 hPa 0,0 l/m 0,1 km/h (0 Bft) O-NO22.5 75 0 min 22,0 klux 150 W/m
26.09.2017 11:48 16,3 C 76 % 1019,7 hPa 0,0 l/m 0,0 km/h (0 Bft) O 80 0 min 22,7 klux 155 W/m
26.09.2017 11:53 16,5 C 75 % 1019,7 hPa 0,0 l/m 0,0 km/h (0 Bft) O-NO22.5 60 0 min 22,6 klux 155 W/m
26.09.2017 11:58 16,6 C 75 % 1020,7 hPa 0,0 l/m 0,0 km/h (0 Bft) O 85 0 min 22,0 klux 150 W/m
26.09.2017 12:03 16,7 C 75 % 1020,7 hPa 0,0 l/m 0,1 km/h (0 Bft) O-NO 65 0 min 21,8 klux 149 W/m
26.09.2017 12:08 16,8 C 74 % 1020,7 hPa 0,0 l/m 0,0 km/h (0 Bft) NO 55 0 min 22,0 klux 150 W/m
26.09.2017 12:13 16,8 C 73 % 1020,7 hPa 0,0 l/m 0,0 km/h (0 Bft) NO22.5 45 0 min 22,9 klux 157 W/m
26.09.2017 12:18 16,8 C 73 % 1020,7 hPa 0,0 l/m 0,0 km/h (0 Bft) NO22.5 40 0 min 23,7 klux 162 W/m
26.09.2017 12:23 17,0 C 73 % 1020,7 hPa 0,0 l/m 0,0 km/h (0 Bft) N22.5 5 0 min 25,2 klux 172 W/m
26.09.2017 12:28 17,1 C 71 % 1020,7 hPa 0,0 l/m 4,3 km/h (1 Bft) N-NO22.5 25 0 min 25,5 klux 174 W/m
26.09.2017 12:33 17,2 C 71 % 1020,7 hPa 0,0 l/m 0,0 km/h (0 Bft) N22.5 10 0 min 26,2 klux 179 W/m
26.09.2017 12:38 17,2 C 71 % 1020,7 hPa 0,0 l/m 0,0 km/h (0 Bft) N-NO 30 0 min 26,0 klux 178 W/m
26.09.2017 12:43 17,3 C 70 % 1020,7 hPa 0,0 l/m 6,0 km/h (2 Bft) N-NO67.5 25 0 min 26,2 klux 179 W/m
26.09.2017 12:48 17,4 C 70 % 1020,7 hPa 0,0 l/m 0,0 km/h (0 Bft) NO 45 0 min 25,9 klux 177 W/m
26.09.2017 12:53 17,4 C 70 % 1020,7 hPa 0,0 l/m 0,3 km/h (0 Bft) N-NW22.5 330 0 min 25,9 klux 177 W/m
26.09.2017 12:58 17,3 C 71 % 1020,7 hPa 0,0 l/m 0,0 km/h (0 Bft) NW22.5 320 0 min 27,8 klux 190 W/m
26.09.2017 13:03 17,3 C 70 % 1020,7 hPa 0,0 l/m 0,3 km/h (0 Bft) NW 320 0 min 27,0 klux 185 W/m
26.09.2017 13:08 17,3 C 70 % 1020,7 hPa 0,0 l/m 0,1 km/h (0 Bft) NW 315 0 min 26,2 klux 179 W/m
26.09.2017 13:13 17,3 C 70 % 1020,7 hPa 0,0 l/m 0,0 km/h (0 Bft) W-NW22.5 290 0 min 25,8 klux 176 W/m
26.09.2017 13:18 17,5 C 70 % 1020,7 hPa 0,0 l/m 7,0 km/h (2 Bft) N45 5 0 min 25,2 klux 172 W/m
26.09.2017 13:23 17,6 C 69 % 1020,7 hPa 0,0 l/m 0,6 km/h (0 Bft) N-NO45 30 0 min 24,5 klux 168 W/m
26.09.2017 13:27 17,9 C 68 % 1020,7 hPa 0,0 l/m 0,1 km/h (0 Bft) N-NW22.5 330 0 min 23,5 klux 161 W/m
26.09.2017 13:33 17,8 C 68 % 1020,7 hPa 0,0 l/m 1,0 km/h (0 Bft) N-NW22.5 330 0 min 25,7 klux 176 W/m
26.09.2017 13:38 17,9 C 68 % 1020,7 hPa 0,0 l/m 0,0 km/h (0 Bft) N 355 0 min 27,1 klux 185 W/m
26.09.2017 13:43 18,0 C 68 % 1020,7 hPa 0,0 l/m 6,8 km/h (2 Bft) N22.5 5 0 min 28,7 klux 196 W/m
26.09.2017 13:48 18,2 C 67 % 1020,7 hPa 0,0 l/m 5,4 km/h (2 Bft) NO22.5 35 0 min 28,7 klux 196 W/m
26.09.2017 13:53 18,5 C 67 % 1020,7 hPa 0,0 l/m 0,2 km/h (0 Bft) N 350 0 min 32,3 klux 221 W/m
26.09.2017 13:58 18,6 C 66 % 1020,7 hPa 0,0 l/m 8,1 km/h (2 Bft) NO22.5 45 0 min 31,6 klux 216 W/m
26.09.2017 14:03 18,8 C 66 % 1020,7 hPa 0,0 l/m 7,4 km/h (2 Bft) NO22.5 50 0 min 34,5 klux 236 W/m
26.09.2017 14:08 18,9 C 65 % 1019,7 hPa 0,0 l/m 6,5 km/h (2 Bft) NO67.5 55 0 min 32,9 klux 225 W/m
26.09.2017 14:13 18,9 C 65 % 1019,7 hPa 0,0 l/m 6,8 km/h (2 Bft) N-NO45 15 0 min 32,8 klux 224 W/m
26.09.2017 14:18 19,3 C 65 % 1019,7 hPa 0,0 l/m 8,9 km/h (2 Bft) NO22.5 45 0 min 33,9 klux 232 W/m
26.09.2017 14:23 19,5 C 63 % 1019,7 hPa 0,0 l/m 7,8 km/h (2 Bft) NO22.5 45 0 min 45,4 klux 311 W/m
26.09.2017 14:28 19,6 C 62 % 1019,7 hPa 0,0 l/m 6,3 km/h (2 Bft) N22.5 360 5 min 58,0 klux 397 W/m
26.09.2017 14:33 19,8 C 62 % 1019,7 hPa 0,0 l/m 0,8 km/h (0 Bft) N45 5 0 min 34,1 klux 233 W/m
26.09.2017 14:38 19,7 C 62 % 1019,7 hPa 0,0 l/m 1,9 km/h (1 Bft) N45 355 0 min 31,8 klux 218 W/m
26.09.2017 14:43 19,6 C 62 % 1019,7 hPa 0,0 l/m 9,2 km/h (2 Bft) N-NO45 30 0 min 30,6 klux 209 W/m
26.09.2017 14:48 19,6 C 62 % 1019,7 hPa 0,0 l/m 6,7 km/h (2 Bft) NO45 40 0 min 32,9 klux 225 W/m
26.09.2017 14:53 19,8 C 63 % 1019,7 hPa 0,0 l/m 10,0 km/h (2 Bft) N-NO45 30 0 min 43,3 klux 296 W/m
26.09.2017 14:58 20,0 C 65 % 1019,7 hPa 0,0 l/m 8,5 km/h (2 Bft) NO45 40 0 min 29,7 klux 203 W/m
26.09.2017 15:03 19,6 C 66 % 1019,7 hPa 0,0 l/m 8,5 km/h (2 Bft) NW22.5 325 0 min 25,4 klux 174 W/m
26.09.2017 15:08 19,4 C 66 % 1019,7 hPa 0,0 l/m 9,0 km/h (2 Bft) N67.5 355 0 min 39,9 klux 273 W/m
26.09.2017 15:13 19,5 C 65 % 1019,7 hPa 0,0 l/m 9,2 km/h (2 Bft) N-NW45 345 0 min 39,9 klux 273 W/m
26.09.2017 15:18 19,6 C 66 % 1019,7 hPa 0,0 l/m 10,0 km/h (2 Bft) N67.5 360 0 min 39,9 klux 273 W/m
26.09.2017 15:23 19,8 C 65 % 1019,7 hPa 0,0 l/m 6,8 km/h (2 Bft) N45 355 0 min 39,9 klux 273 W/m
26.09.2017 15:28 20,0 C 63 % 1019,7 hPa 0,0 l/m 13,6 km/h (3 Bft) NO45 40 0 min 39,9 klux 273 W/m
26.09.2017 15:33 20,1 C 63 % 1019,7 hPa 0,0 l/m 11,5 km/h (2 Bft) N-NO22.5 15 0 min 30,8 klux 211 W/m
26.09.2017 15:38 20,0 C 62 % 1019,7 hPa 0,0 l/m 11,6 km/h (2 Bft) N22.5 10 0 min 30,8 klux 211 W/m
26.09.2017 15:43 20,1 C 62 % 1019,7 hPa 0,0 l/m 1,7 km/h (1 Bft) N22.5 5 0 min 30,8 klux 211 W/m
26.09.2017 15:48 20,0 C 62 % 1019,7 hPa 0,0 l/m 5,5 km/h (2 Bft) NO45 45 0 min 30,8 klux 211 W/m
26.09.2017 15:53 19,8 C 62 % 1019,7 hPa 0,0 l/m 0,9 km/h (0 Bft) N22.5 5 0 min 20,4 klux 140 W/m
26.09.2017 15:58 19,7 C 62 % 1019,7 hPa 0,0 l/m 3,4 km/h (1 Bft) N22.5 360 0 min 20,4 klux 140 W/m
26.09.2017 16:03 19,7 C 63 % 1019,7 hPa 0,0 l/m 6,2 km/h (2 Bft) N45 350 0 min 20,4 klux 140 W/m
26.09.2017 16:08 19,6 C 63 % 1019,7 hPa 0,0 l/m 0,6 km/h (0 Bft) N22.5 350 0 min 19,8 klux 135 W/m
26.09.2017 16:13 19,6 C 63 % 1019,7 hPa 0,0 l/m 0,4 km/h (0 Bft) N45 350 0 min 19,8 klux 135 W/m
26.09.2017 16:18 19,6 C 62 % 1019,7 hPa 0,0 l/m 5,6 km/h (2 Bft) N-NO22.5 15 0 min 19,7 klux 135 W/m
26.09.2017 16:23 19,5 C 62 % 1019,7 hPa 0,0 l/m 6,5 km/h (2 Bft) N-NW45 340 0 min 19,7 klux 135 W/m
26.09.2017 16:28 19,5 C 62 % 1019,7 hPa 0,0 l/m 0,6 km/h (0 Bft) N45 360 0 min 19,7 klux 135 W/m
26.09.2017 16:33 19,6 C 62 % 1019,7 hPa 0,0 l/m 0,0 km/h (0 Bft) N-NO45 25 0 min 19,7 klux 135 W/m
26.09.2017 16:38 19,7 C 60 % 1019,7 hPa 0,0 l/m 0,9 km/h (0 Bft) NO22.5 50 0 min 17,0 klux 116 W/m
26.09.2017 16:43 19,6 C 60 % 1019,7 hPa 0,0 l/m 6,8 km/h (2 Bft) NO45 45 0 min 17,0 klux 116 W/m
26.09.2017 16:48 19,5 C 61 % 1019,7 hPa 0,0 l/m 5,7 km/h (2 Bft) N22.5 360 0 min 11,8 klux 81 W/m
26.09.2017 16:53 19,3 C 62 % 1019,7 hPa 0,0 l/m 0,7 km/h (0 Bft) N45 360 0 min 11,8 klux 81 W/m
26.09.2017 16:58 19,3 C 63 % 1019,7 hPa 0,0 l/m 0,5 km/h (0 Bft) N22.5 355 0 min 10,4 klux 71 W/m
26.09.2017 17:03 19,3 C 63 % 1019,7 hPa 0,0 l/m 0,4 km/h (0 Bft) N22.5 10 0 min 12,5 klux 86 W/m
26.09.2017 17:08 19,5 C 63 % 1019,7 hPa 0,0 l/m 7,8 km/h (2 Bft) N22.5 10 0 min 13,4 klux 92 W/m
26.09.2017 17:13 19,5 C 64 % 1019,7 hPa 0,0 l/m 6,0 km/h (2 Bft) N-NW22.5 330 0 min 14,9 klux 102 W/m
26.09.2017 17:18 19,5 C 63 % 1019,7 hPa 0,0 l/m 5,8 km/h (2 Bft) N22.5 10 0 min 14,9 klux 102 W/m
26.09.2017 17:23 19,5 C 63 % 1019,7 hPa 0,0 l/m 0,3 km/h (0 Bft) N22.5 360 0 min 13,4 klux 92 W/m
26.09.2017 17:28 19,4 C 64 % 1019,7 hPa 0,0 l/m 0,1 km/h (0 Bft) N22.5 5 0 min 10,5 klux 72 W/m
26.09.2017 17:33 19,5 C 64 % 1019,7 hPa 0,0 l/m 0,0 km/h (0 Bft) N-NO22.5 15 0 min 9,9 klux 68 W/m
26.09.2017 17:38 19,4 C 63 % 1019,7 hPa 0,0 l/m 5,6 km/h (2 Bft) N-NO22.5 25 0 min 7,98 klux 55 W/m
26.09.2017 17:43 19,3 C 63 % 1019,7 hPa 0,0 l/m 6,5 km/h (2 Bft) NO22.5 35 0 min 7,56 klux 52 W/m
26.09.2017 17:48 19,3 C 63 % 1019,7 hPa 0,0 l/m 17,6 km/h (3 Bft) O67.5 100 0 min 6,29 klux 43 W/m
26.09.2017 17:53 18,6 C 62 % 1019,7 hPa 0,0 l/m 12,7 km/h (3 Bft) O-SO67.5 105 0 min 6,29 klux 43 W/m
26.09.2017 17:58 18,3 C 63 % 1019,7 hPa 0,0 l/m 3,0 km/h (1 Bft) O-SO67.5 105 0 min 6,29 klux 43 W/m
26.09.2017 18:03 18,2 C 63 % 1019,7 hPa 0,0 l/m 2,8 km/h (1 Bft) O67.5 100 0 min 6,29 klux 43 W/m
26.09.2017 18:08 18,0 C 65 % 1019,7 hPa 0,0 l/m 1,5 km/h (1 Bft) SO45 140 0 min 6,29 klux 43 W/m
26.09.2017 18:13 17,8 C 65 % 1019,7 hPa 0,0 l/m 8,6 km/h (2 Bft) O45 85 0 min 4,76 klux 33 W/m
26.09.2017 18:17 17,6 C 65 % 1019,7 hPa 0,0 l/m 6,3 km/h (2 Bft) O-SO67.5 120 0 min 4,51 klux 31 W/m
26.09.2017 18:23 17,5 C 65 % 1019,7 hPa 0,0 l/m 8,1 km/h (2 Bft) O-SO45 110 0 min 4,51 klux 31 W/m
26.09.2017 18:28 17,2 C 65 % 1019,7 hPa 0,0 l/m 0,4 km/h (0 Bft) SO45 125 0 min 4,51 klux 31 W/m
26.09.2017 18:33 17,2 C 66 % 1019,7 hPa 0,0 l/m 1,5 km/h (1 Bft) O67.5 100 0 min 4,51 klux 31 W/m
26.09.2017 18:38 17,0 C 66 % 1019,7 hPa 0,0 l/m 0,7 km/h (0 Bft) SO67.5 140 0 min 3,98 klux 27 W/m
26.09.2017 18:43 17,0 C 66 % 1019,7 hPa 0,0 l/m 0,5 km/h (0 Bft) SO45 125 0 min 3,63 klux 25 W/m
26.09.2017 18:48 16,9 C 66 % 1019,7 hPa 0,0 l/m 0,0 km/h (0 Bft) O-SO22.5 110 0 min 3,24 klux 22 W/m
26.09.2017 18:53 16,8 C 67 % 1019,7 hPa 0,0 l/m 0,0 km/h (0 Bft) SO 125 0 min 2,38 klux 16 W/m
26.09.2017 18:58 16,8 C 67 % 1019,7 hPa 0,0 l/m 0,0 km/h (0 Bft) O-SO 115 0 min 1,89 klux 13 W/m
26.09.2017 19:03 16,7 C 67 % 1019,7 hPa 0,0 l/m 0,0 km/h (0 Bft) SO 125 0 min 1,89 klux 13 W/m
26.09.2017 19:08 16,7 C 67 % 1020,7 hPa 0,0 l/m 6,0 km/h (2 Bft) NO22.5 40 0 min 1,59 klux 11 W/m
26.09.2017 19:13 16,8 C 68 % 1020,7 hPa 0,0 l/m 4,8 km/h (1 Bft) NO22.5 45 0 min 1,19 klux 8 W/m
26.09.2017 19:18 16,6 C 69 % 1020,7 hPa 0,0 l/m 8,9 km/h (2 Bft) NO22.5 40 0 min 789 lux 0 W/m
26.09.2017 19:23 16,5 C 70 % 1020,7 hPa 0,0 l/m 3,9 km/h (1 Bft) NO22.5 40 0 min 492 lux 0 W/m
26.09.2017 19:28 16,2 C 70 % 1020,7 hPa 0,0 l/m 4,6 km/h (1 Bft) NO22.5 40 0 min 281 lux 0 W/m
26.09.2017 19:33 15,9 C 70 % 1020,7 hPa 0,0 l/m 0,6 km/h (0 Bft) O-NO22.5 60 0 min 281 lux 0 W/m
26.09.2017 19:38 15,6 C 71 % 1020,7 hPa 0,0 l/m 0,6 km/h (0 Bft) NO22.5 55 0 min 281 lux 0 W/m
26.09.2017 19:43 15,5 C 71 % 1020,7 hPa 0,0 l/m 1,0 km/h (0 Bft) O22.5 90 0 min 281 lux 0 W/m
26.09.2017 19:48 15,4 C 71 % 1020,7 hPa 0,0 l/m 0,1 km/h (0 Bft) O-SO22.5 105 0 min 281 lux 0 W/m
26.09.2017 19:53 15,2 C 72 % 1020,7 hPa 0,0 l/m 0,0 km/h (0 Bft) O22.5 100 0 min 281 lux 0 W/m
26.09.2017 19:58 15,2 C 72 % 1020,7 hPa 0,0 l/m 0,7 km/h (0 Bft) O22.5 100 0 min 281 lux 0 W/m
26.09.2017 20:03 15,2 C 72 % 1020,7 hPa 0,0 l/m 7,2 km/h (2 Bft) O-NO45 75 0 min 0 lux 0 W/m
26.09.2017 20:08 15,4 C 72 % 1020,7 hPa 0,0 l/m 1,1 km/h (1 Bft) NO22.5 45 0 min 0 lux 0 W/m
26.09.2017 20:13 15,4 C 71 % 1020,7 hPa 0,0 l/m 9,1 km/h (2 Bft) NO22.5 50 0 min 0 lux 0 W/m
26.09.2017 20:18 15,4 C 72 % 1020,7 hPa 0,0 l/m 8,6 km/h (2 Bft) NO22.5 55 0 min 0 lux 0 W/m
26.09.2017 20:23 15,5 C 72 % 1020,7 hPa 0,0 l/m 7,6 km/h (2 Bft) NO22.5 55 0 min 0 lux 0 W/m
26.09.2017 20:28 15,5 C 71 % 1020,7 hPa 0,0 l/m 6,3 km/h (2 Bft) NO22.5 50 0 min 0 lux 0 W/m
26.09.2017 20:33 15,6 C 70 % 1020,7 hPa 0,0 l/m 8,5 km/h (2 Bft) O-NO45 65 0 min 0 lux 0 W/m
26.09.2017 20:38 15,6 C 69 % 1020,7 hPa 0,0 l/m 17,6 km/h (3 Bft) O67.5 95 0 min 0 lux 0 W/m
26.09.2017 20:43 15,5 C 70 % 1020,7 hPa 0,0 l/m 15,8 km/h (3 Bft) O67.5 85 0 min 0 lux 0 W/m
26.09.2017 20:48 15,4 C 70 % 1020,7 hPa 0,0 l/m 12,7 km/h (3 Bft) O67.5 95 0 min 0 lux 0 W/m
26.09.2017 20:53 15,2 C 71 % 1020,7 hPa 0,0 l/m 9,5 km/h (2 Bft) O67.5 100 0 min 0 lux 0 W/m
26.09.2017 20:58 15,0 C 71 % 1020,7 hPa 0,0 l/m 0,9 km/h (0 Bft) O-SO45 105 0 min 0 lux 0 W/m
26.09.2017 21:03 15,0 C 72 % 1021,7 hPa 0,0 l/m 0,6 km/h (0 Bft) O-SO45 110 0 min 0 lux 0 W/m
26.09.2017 21:08 15,0 C 73 % 1021,7 hPa 0,0 l/m 0,6 km/h (0 Bft) O-SO45 105 0 min 0 lux 0 W/m
26.09.2017 21:13 14,8 C 73 % 1021,8 hPa 0,0 l/m 0,1 km/h (0 Bft) O-SO45 110 0 min 0 lux 0 W/m
26.09.2017 21:18 14,8 C 73 % 1021,8 hPa 0,0 l/m 0,0 km/h (0 Bft) O22.5 90 0 min 0 lux 0 W/m
26.09.2017 21:23 14,7 C 74 % 1021,8 hPa 0,0 l/m 0,0 km/h (0 Bft) O-NO22.5 70 0 min 0 lux 0 W/m
26.09.2017 21:28 14,6 C 74 % 1021,8 hPa 0,0 l/m 0,3 km/h (0 Bft) O-NO22.5 75 0 min 0 lux 0 W/m
26.09.2017 21:33 14,6 C 74 % 1021,8 hPa 0,0 l/m 0,8 km/h (0 Bft) O-NO22.5 75 0 min 0 lux 0 W/m
26.09.2017 21:38 14,6 C 75 % 1021,8 hPa 0,0 l/m 0,3 km/h (0 Bft) O-SO22.5 105 0 min 0 lux 0 W/m
26.09.2017 21:43 14,6 C 75 % 1021,8 hPa 0,0 l/m 0,1 km/h (0 Bft) O22.5 90 0 min 0 lux 0 W/m
26.09.2017 21:48 14,6 C 75 % 1020,8 hPa 0,0 l/m 0,1 km/h (0 Bft) O-SO22.5 105 0 min 0 lux 0 W/m
26.09.2017 21:53 14,6 C 75 % 1020,8 hPa 0,0 l/m 0,1 km/h (0 Bft) O-SO22.5 105 0 min 0 lux 0 W/m
26.09.2017 21:58 14,6 C 75 % 1020,8 hPa 0,0 l/m 0,0 km/h (0 Bft) O 95 0 min 0 lux 0 W/m
26.09.2017 22:03 14,4 C 75 % 1020,8 hPa 0,0 l/m 0,2 km/h (0 Bft) O-SO22.5 115 0 min 0 lux 0 W/m
26.09.2017 22:08 14,4 C 75 % 1020,8 hPa 0,0 l/m 0,0 km/h (0 Bft) O 100 0 min 0 lux 0 W/m
26.09.2017 22:13 14,2 C 75 % 1020,8 hPa 0,0 l/m 0,0 km/h (0 Bft) O-SO 110 0 min 0 lux 0 W/m
26.09.2017 22:18 14,1 C 75 % 1020,8 hPa 0,0 l/m 0,0 km/h (0 Bft) O-SO 110 0 min 0 lux 0 W/m
26.09.2017 22:23 14,0 C 75 % 1020,8 hPa 0,0 l/m 0,0 km/h (0 Bft) O-SO 110 0 min 0 lux 0 W/m
26.09.2017 22:28 13,8 C 76 % 1020,8 hPa 0,0 l/m 0,0 km/h (0 Bft) O-SO 110 0 min 0 lux 0 W/m
26.09.2017 22:33 13,6 C 76 % 1020,8 hPa 0,0 l/m 0,0 km/h (0 Bft) O-SO 110 0 min 0 lux 0 W/m
26.09.2017 22:38 13,4 C 76 % 1020,8 hPa 0,0 l/m 0,0 km/h (0 Bft) O-SO 110 0 min 0 lux 0 W/m
26.09.2017 22:43 13,4 C 76 % 1020,8 hPa 0,0 l/m 0,0 km/h (0 Bft) O-SO 110 0 min 0 lux 0 W/m
26.09.2017 22:48 13,4 C 77 % 1020,8 hPa 0,0 l/m 0,0 km/h (0 Bft) O-SO 110 0 min 0 lux 0 W/m
26.09.2017 22:53 13,2 C 77 % 1020,8 hPa 0,0 l/m 0,0 km/h (0 Bft) O-SO 110 0 min 0 lux 0 W/m
26.09.2017 22:58 13,2 C 77 % 1020,8 hPa 0,0 l/m 0,0 km/h (0 Bft) O-SO 110 0 min 0 lux 0 W/m
26.09.2017 23:03 12,8 C 77 % 1020,8 hPa 0,0 l/m 0,0 km/h (0 Bft) O-SO 110 0 min 0 lux 0 W/m
26.09.2017 23:08 12,6 C 77 % 1020,8 hPa 0,0 l/m 0,0 km/h (0 Bft) O-SO 110 0 min 0 lux 0 W/m
26.09.2017 23:13 12,6 C 77 % 1020,8 hPa 0,0 l/m 0,0 km/h (0 Bft) O-SO 110 0 min 0 lux 0 W/m
26.09.2017 23:18 12,7 C 78 % 1020,8 hPa 0,0 l/m 0,0 km/h (0 Bft) O-SO 110 0 min 0 lux 0 W/m
26.09.2017 23:23 12,8 C 79 % 1020,8 hPa 0,0 l/m 0,0 km/h (0 Bft) O-SO 110 0 min 0 lux 0 W/m
26.09.2017 23:28 12,8 C 79 % 1020,8 hPa 0,0 l/m 0,0 km/h (0 Bft) O-SO 110 0 min 0 lux 0 W/m
26.09.2017 23:33 12,7 C 79 % 1020,8 hPa 0,0 l/m 0,0 km/h (0 Bft) O-SO 110 0 min 0 lux 0 W/m
26.09.2017 23:38 12,8 C 81 % 1020,8 hPa 0,0 l/m 0,0 km/h (0 Bft) O22.5 80 0 min 0 lux 0 W/m
26.09.2017 23:43 12,8 C 81 % 1020,8 hPa 0,0 l/m 3,9 km/h (1 Bft) NO 50 0 min 0 lux 0 W/m
26.09.2017 23:48 12,8 C 81 % 1021,8 hPa 0,0 l/m 6,0 km/h (2 Bft) NO22.5 55 0 min 0 lux 0 W/m
26.09.2017 23:53 12,8 C 81 % 1021,8 hPa 0,0 l/m 4,7 km/h (1 Bft) O-NO22.5 60 0 min 0 lux 0 W/m
26.09.2017 23:58 12,9 C 81 % 1021,8 hPa 0,0 l/m 3,1 km/h (1 Bft) NO 55 0 min 0 lux 0 W/m
_ Min-Zeit 02:33 16:38 00:03 - 00:03 - - - - -
Minimum _ 12,0 C 60 % 1018,8 hPa - 0,0 km/h (0 Bft) - - - - -
_ Max-Zeit 15:33 03:48 23:48 00:03 17:48 - - 14:28 14:28 14:28
Maximum _ 20,1 C 86 % 1021,8 hPa 0,0 l/m 17,6 km/h
O (3 Bft)
- - 5 min 58,0 klux 397 W/m
Durchschnitt _ 15,2 C 77 % 1019,8 hPa #0,0 l/m 1,9 km/h (1 Bft) NO - #5 min. 7,21 klux 143 W/m